This is the latest recevied weather packets stored in our database for station/object SV4FHR-2. If no packets are shown the sender has not sent any weather packets the latest 10 day(s).
| Time | Temp. | Humidity | Pressure | Rain* | Wind** | Luminosity | Snow |
|---|---|---|---|---|---|---|---|
| 1777649831 | 11.67° C | 74% | 1018.5 hPa | 0 mm | - | - | - |
| 1777649531 | 11.67° C | 75% | 1018.6 hPa | 0 mm | - | - | - |
| 1777649231 | 11.67° C | 73% | 1018.7 hPa | 0 mm | - | - | - |
| 1777648931 | 11.67° C | 73% | 1018.8 hPa | 0 mm | - | - | - |
| 1777648631 | 11.67° C | 74% | 1018.8 hPa | 0 mm | - | - | - |
| 1777648331 | 11.11° C | 83% | 1016.8 hPa | 0 mm | - | - | - |
| 1777588226 | 11.11° C | 83% | 1016.7 hPa | 0 mm | - | - | - |
| 1777587926 | 11.67° C | 71% | 1016.7 hPa | 0 mm | - | - | - |
| 1777587626 | 11.67° C | 71% | 1016.7 hPa | 0 mm | - | - | - |
| 1777587326 | 11.67° C | 72% | 1016.4 hPa | 0 mm | - | - | - |
| 1777587026 | 11.67° C | 72% | 1016.5 hPa | 0 mm | - | - | - |
| 1777586725 | 11.67° C | 10% | 1016.4 hPa | 0 mm | - | - | - |
| 1777586427 | 11.67° C | 74% | 1016.2 hPa | 0 mm | - | - | - |
| 1777586127 | 11.67° C | 74% | 1016.5 hPa | 0 mm | - | - | - |
| 1777585827 | 11.67° C | 73% | 1016.3 hPa | 0 mm | - | - | - |
| 1777585526 | 11.67° C | 73% | 1016 hPa | 0 mm | - | - | - |
| 1777585226 | 11.67° C | 74% | 1016 hPa | 0 mm | - | - | - |
| 1777584926 | 11.67° C | 73% | 1015.8 hPa | 0 mm | - | - | - |
| 1777584626 | 11.67° C | 74% | 1015.7 hPa | 0 mm | - | - | - |
| 1777584326 | 11.67° C | 74% | 1015.7 hPa | 0 mm | - | - | - |
| 1777584026 | 11.67° C | 73% | 1015.7 hPa | 0 mm | - | - | - |
| 1777583726 | 11.67° C | 73% | 1015.6 hPa | 0 mm | - | - | - |
| 1777583426 | 11.67° C | 72% | 1015.8 hPa | 0 mm | - | - | - |
| 1777583126 | 11.67° C | 72% | 1015.6 hPa | 0 mm | - | - | - |
| 1777582826 | 11.67° C | 73% | 1015.7 hPa | 0 mm | - | - | - |
* Rain latest hour (hover to see other rain measurements)
** Current wind speed in m/s (hover to see current wind gust speed)